Lamar, CO

6:08 PM MDT on June 22, 2017 (GMT -0600)
Lamar Municipal

Weather History for KLAA - August, 2013

Change the Weather History Date:

Sunday, August 25, 2013

  Actual Average Record
Temperature  
Mean Temperature 85 °F 74 °F  
Max Temperature 98 °F 89 °F 106 °F (1936)
Min Temperature 72 °F 59 °F 44 °F (1992)
Degree Days  
Heating Degree Days 0 0  
Month to date heating degree days 0 0  
Since 1 June heating degree days 16 22  
Since 1 July heating degree days 0 2  
Cooling Degree Days 20 9  
Month to date cooling degree days 284 276  
Year to date cooling degree days 1240 940  
Since 1 June cooling degree days 1099 880  
Growing Degree Days 34 (Base 50)    
Moisture  
Dew Point 53 °F    
Average Humidity 39    
Maximum Humidity 57    
Minimum Humidity 21    
Precipitation  
Precipitation 0.00 in 0.05 in 0.92 in (1992)
Month to date precipitation 2.31  
Year to date precipitation 6.62  
Sea Level Pressure  
Sea Level Pressure 29.92 in    
Wind  
Wind Speed 18 mph (South)    
Max Wind Speed 29 mph    
Max Gust Speed 38 mph    
Visibility 10 miles    
Events      
T = Trace of Precipitation, MM = Missing Value Source: NWS Daily Summary

Daily Weather History Graph

Daily Weather History Graph

Search for Another Location

Airport or City:

Trip Planner

Search our weather history database for the weather conditions in past years. The results will help you decide how hot, cold, wet, or windy it might be!

Date:

Astronomy

Aug. 25, 2013 Rise Set
Actual Time 6:14 AM MDT 7:30 PM MDT
Civil Twilight 5:47 AM MDT 7:57 PM MDT
Nautical Twilight 5:14 AM MDT 8:29 PM MDT
Astronomical Twilight 4:40 AM MDT 9:04 PM MDT
Moon 10:08 PM MDT (8/25) 11:13 AM MDT (8/25)
Length of Visible Light 14h 10m
Length of Day
13h 15m
Waning Gibbous, 75% of the Moon is Illuminated
Aug 25
Waning Gibbous
Aug 28
Last Quarter
Sep 5
New
Sep 12
First Quarter
Sep 19
Full

Hourly Weather History & Observations

Time (MDT) Temp. Heat Index Dew Point Humidity Pressure Visibility Wind Dir Wind Speed Gust Speed Precip Events Conditions
12:53 AM 78.1 °F - 55.0 °F 45% 29.91 in 10.0 mi South 17.3 mph - N/A   Clear
1:53 AM 77.0 °F - 55.0 °F 47% 29.91 in 10.0 mi SSW 13.8 mph - N/A   Clear
2:53 AM 75.0 °F - 55.0 °F 50% 29.92 in 10.0 mi South 11.5 mph - N/A   Clear
3:53 AM 73.0 °F - 55.0 °F 53% 29.93 in 10.0 mi South 10.4 mph - N/A   Clear
4:53 AM 72.0 °F - 55.9 °F 57% 29.94 in 10.0 mi SSW 9.2 mph - N/A   Clear
5:53 AM 73.0 °F - 55.0 °F 53% 29.94 in 10.0 mi SSW 11.5 mph - N/A   Clear
6:53 AM 75.9 °F - 55.0 °F 48% 29.95 in 10.0 mi SSW 16.1 mph - N/A   Clear
7:53 AM 81.0 °F 80.7 °F 55.0 °F 41% 29.96 in 10.0 mi SSW 18.4 mph 25.3 mph N/A   Clear
8:53 AM 84.9 °F 83.7 °F 55.9 °F 37% 29.96 in 10.0 mi SSW 24.2 mph 32.2 mph N/A   Clear
9:53 AM 88.0 °F 86.1 °F 55.0 °F 32% 29.97 in 10.0 mi SSW 26.5 mph 33.4 mph N/A   Clear
10:53 AM 91.9 °F 89.5 °F 54.0 °F 27% 29.96 in 10.0 mi SSW 23.0 mph 29.9 mph N/A   Clear
11:53 AM 93.9 °F 91.4 °F 53.1 °F 25% 29.94 in 10.0 mi South 18.4 mph 31.1 mph N/A   Clear
12:53 PM 97.0 °F - 52.0 °F 22% 29.91 in 10.0 mi SSW 21.9 mph 29.9 mph N/A   Clear
1:53 PM 97.0 °F - 51.1 °F 21% 29.91 in 10.0 mi South 16.1 mph 28.8 mph N/A   Clear
2:53 PM 97.0 °F - 50.0 °F 20% 29.89 in 10.0 mi South 23.0 mph 31.1 mph N/A   Partly Cloudy
3:53 PM 96.1 °F - 51.1 °F 22% 29.88 in 10.0 mi South 18.4 mph 32.2 mph N/A   Partly Cloudy
4:53 PM 95.0 °F - 51.1 °F 22% 29.88 in 10.0 mi South 19.6 mph 38.0 mph N/A   Clear
5:53 PM 93.9 °F - 48.0 °F 21% 29.89 in 10.0 mi South 25.3 mph 34.5 mph N/A   Clear
6:53 PM 91.0 °F - 48.0 °F 23% 29.88 in 10.0 mi South 18.4 mph 28.8 mph N/A   Clear
7:53 PM 86.0 °F - 48.9 °F 28% 29.91 in 10.0 mi South 12.7 mph - N/A   Clear
8:53 PM 82.9 °F - 51.1 °F 33% 29.93 in 10.0 mi South 13.8 mph - N/A   Clear
9:53 PM 82.0 °F 81.2 °F 53.1 °F 37% 29.94 in 10.0 mi South 17.3 mph - N/A   Clear
10:53 PM 81.0 °F 80.8 °F 55.9 °F 42% 29.94 in 10.0 mi South 21.9 mph 28.8 mph N/A   Clear
11:53 PM 80.1 °F 80.2 °F 55.9 °F 43% 29.94 in 10.0 mi South 20.7 mph 28.8 mph N/A   Clear